Wind_Speed
17 18 18 18 18 18 18 18 17 17 17 17 17 17 17 18 18 18 17 17 17 18 18 17 17 16 16 16 16 16 17 18 17 21 24 14 9 14 17 16 11 12 19 21 17 14 22 23 20 22 22 19 13 13 15 8 8 8 4 4 4 4 3 1 1 2 4 5 2 12 16 12 11 11 10 8 7 11 16 8 9 12 5 7 12 20 27 27
18 18 18 18 18 19 19 19 19 19 19 19 19 18 18 18 18 18 18 18 18 18 18 18 17 16 16 17 17 16 17 18 19 24 22 12 15 19 18 19 20 18 18 21 22 20 22 25 26 26 22 15 11 13 13 10 10 9 4 4 5 3 2 2 4 4 7 8 3 12 13 10 13 16 14 10 7 13 13 7 11 10 7 10 13 24 28 26
19 19 19 19 19 19 19 19 19 19 19 20 20 20 20 20 19 19 19 18 18 19 19 18 18 16 15 16 16 16 16 17 21 25 20 15 16 16 16 19 22 23 21 19 19 22 22 25 29 27 19 12 11 13 13 11 11 10 7 5 6 5 5 5 7 9 12 12 6 11 10 7 10 16 15 10 9 12 12 11 14 13 14 17 20 29 29 27
19 20 20 20 20 20 20 20 20 20 20 20 21 21 21 21 21 21 20 19 18 19 19 18 18 16 14 15 15 14 14 15 18 19 12 8 8 4 7 14 20 22 21 18 15 19 21 24 30 27 18 10 10 13 12 13 10 8 9 6 2 3 5 5 6 7 10 8 4 9 9 7 9 13 14 12 9 8 13 18 20 22 24 23 26 32 30 29
20 20 20 20 21 20 21 21 21 21 21 21 21 21 21 21 21 22 22 21 19 18 19 19 19 17 15 14 13 11 9 7 7 7 5 7 5 2 5 10 17 19 20 17 15 21 23 26 28 22 15 9 11 11 11 17 12 7 10 9 5 3 4 5 4 6 9 6 3 8 9 8 10 11 13 16 11 7 13 22 21 25 30 27 30 33 30 30
20 21 21 21 21 21 21 21 21 21 22 22 22 22 22 22 22 22 22 22 21 20 18 18 19 17 16 13 13 10 6 5 3 5 9 5 5 6 6 9 17 20 21 19 20 26 27 29 25 18 14 8 12 11 8 18 15 7 9 10 11 11 10 9 7 9 11 6 3 6 9 10 12 11 14 19 15 7 7 16 21 24 29 29 30 33 33 32
20 21 21 21 21 21 21 21 21 22 22 23 23 24 24 23 23 23 23 22 21 21 19 18 18 18 16 13 13 11 12 18 12 7 7 9 10 10 9 9 17 23 23 24 26 30 31 30 24 18 14 7 12 13 6 14 17 12 9 8 10 12 14 13 13 15 12 10 10 7 9 12 15 11 13 21 18 10 3 8 23 25 26 28 29 32 33 33
20 21 21 21 21 21 21 21 21 22 23 23 24 25 25 25 25 24 23 22 21 21 20 19 18 18 17 13 12 11 18 24 15 10 14 15 15 14 12 9 18 25 27 29 29 32 34 31 25 18 13 8 9 13 9 9 14 16 12 9 9 12 15 15 16 16 13 12 11 8 12 16 21 12 11 20 18 14 5 6 23 26 26 28 28 31 31 31
21 21 22 22 22 22 22 22 22 22 23 24 25 26 26 26 26 25 23 22 20 20 20 18 17 18 17 15 11 9 20 24 18 18 19 19 18 16 14 11 20 29 30 31 28 32 33 29 28 18 11 11 8 11 13 9 8 13 15 13 13 15 16 16 16 17 15 13 10 11 14 17 19 10 9 18 18 17 10 10 22 27 28 27 27 30 30 31
22 22 23 23 23 23 23 23 23 23 23 24 26 27 27 26 26 25 24 22 19 19 18 18 18 18 17 16 9 7 16 15 9 12 13 15 15 13 13 11 20 31 32 31 29 31 31 30 30 17 7 11 8 8 12 11 6 8 13 14 15 17 18 17 17 18 16 14 14 15 15 15 15 11 9 11 19 21 14 15 23 27 30 28 27 28 28 30
23 23 24 24 24 25 25 25 24 24 24 25 26 27 26 25 24 24 23 21 19 18 17 18 17 18 18 15 13 12 14 10 5 2 1 7 10 9 10 10 20 32 33 31 30 29 28 29 30 18 5 9 10 8 11 12 10 10 11 12 15 16 18 17 16 16 12 11 17 19 13 8 11 11 10 10 19 24 19 19 24 27 30 29 27 27 26 27
23 24 24 25 25 26 26 26 25 25 25 26 27 27 26 24 23 23 22 20 18 17 16 17 17 18 17 17 24 22 13 10 10 6 2 6 8 6 6 10 20 29 30 29 29 26 23 25 29 22 7 7 9 6 8 12 13 15 13 12 13 13 16 16 15 14 11 9 14 17 10 6 11 13 12 13 20 23 22 22 24 26 28 28 28 27 26 26
25 25 25 26 26 26 27 26 26 26 26 26 27 27 25 23 22 22 20 19 17 15 15 17 17 18 15 17 24 20 15 15 14 12 9 5 8 9 5 12 21 26 27 27 26 24 22 23 28 26 12 8 7 4 3 4 8 12 10 9 9 8 10 8 8 8 12 8 11 15 6 6 13 16 14 17 22 23 22 23 24 25 26 28 29 27 26 26
28 28 28 28 28 27 27 27 27 26 26 26 26 25 24 21 20 20 19 17 15 13 14 16 16 16 16 20 19 12 15 21 21 18 15 12 10 8 6 13 21 26 26 25 23 24 24 24 25 23 14 8 4 3 2 0 2 4 4 5 5 5 4 1 1 5 8 6 13 16 7 5 9 13 17 20 25 27 23 23 24 25 25 27 30 29 29 30
30 31 31 31 31 30 28 28 27 26 26 24 23 24 22 18 18 17 16 15 12 11 12 14 16 14 13 20 21 14 15 21 25 24 19 17 15 11 9 13 21 26 25 22 21 24 26 25 23 16 11 10 5 3 4 3 2 2 3 5 4 5 5 4 4 5 6 3 14 15 7 3 4 10 20 24 28 29 24 24 25 25 26 27 29 29 29 32
31 32 33 33 33 32 31 30 28 27 25 22 23 22 18 16 15 14 13 11 9 7 8 11 16 15 7 12 15 15 16 20 23 24 24 23 20 17 14 13 20 26 24 17 16 21 25 22 18 12 7 8 7 5 3 4 5 3 5 6 4 6 5 5 2 2 5 2 11 13 7 4 0 5 18 24 27 27 23 23 25 26 27 27 28 29 28 29
31 32 33 33 34 33 32 31 30 27 23 21 22 18 14 14 12 11 9 6 5 2 5 6 11 12 9 9 10 12 14 16 18 20 23 26 24 20 18 17 21 26 22 13 10 16 23 17 11 9 6 5 5 5 5 7 8 4 5 6 6 6 5 5 1 3 0 1 6 12 10 8 3 3 13 22 25 25 22 23 26 26 26 27 27 28 28 28
31 32 32 33 33 33 33 32 31 27 21 19 21 16 13 12 10 11 10 6 4 1 3 5 9 4 9 13 11 6 4 9 13 14 16 23 26 21 19 18 21 25 20 12 9 13 17 12 6 5 5 6 6 8 9 6 6 6 6 6 5 6 6 9 5 2 3 5 5 9 10 12 8 3 11 19 23 24 23 23 25 25 26 26 26 28 29 30
31 32 32 33 33 33 32 32 31 25 19 17 18 14 10 10 10 10 8 6 4 4 3 8 15 5 3 7 12 10 5 4 9 11 14 21 26 23 19 17 22 25 18 10 9 12 12 7 6 8 8 10 11 11 11 2 1 6 8 8 7 6 9 10 5 2 5 8 8 8 8 10 8 4 9 16 21 22 20 18 20 22 24 25 26 28 29 31
30 31 32 33 32 33 31 31 30 22 18 19 18 12 8 11 8 4 9 18 17 16 15 15 21 19 11 5 6 10 9 7 8 10 13 18 25 25 19 19 21 20 14 10 9 11 12 7 8 11 10 11 11 11 12 5 2 3 6 8 9 8 10 9 3 1 3 6 8 7 9 11 10 5 9 16 19 18 16 16 18 21 23 26 27 28 30 33
30 30 32 32 32 32 30 31 29 18 18 21 16 9 9 11 6 5 17 25 21 20 25 28 29 32 30 19 10 7 5 7 10 12 12 16 25 23 19 20 16 10 10 12 10 9 11 11 12 12 7 7 9 9 10 11 9 6 5 6 8 9 9 7 5 4 4 6 9 9 12 14 12 7 8 14 16 17 21 20 21 24 24 25 27 29 29 29
30 30 32 32 32 32 29 31 26 16 19 18 10 8 11 11 10 10 14 17 24 27 25 26 28 35 38 33 29 23 11 8 11 15 13 19 27 21 17 18 12 8 11 11 9 7 9 12 12 11 8 7 9 11 12 14 14 10 8 7 8 8 7 8 6 4 4 5 8 9 11 12 10 6 7 14 17 20 26 27 25 27 26 26 28 29 28 26
30 30 32 33 33 32 29 29 21 16 21 14 5 8 11 13 15 15 10 11 24 29 25 25 28 34 38 35 35 32 21 14 14 17 18 23 26 21 17 15 12 10 12 13 11 10 9 10 11 12 11 12 11 12 14 13 12 11 10 9 10 8 6 7 2 2 2 4 7 9 10 10 8 5 7 15 18 18 23 25 22 24 26 27 27 26 27 28
30 30 32 33 34 32 29 26 18 18 21 10 2 7 13 17 17 17 11 8 13 17 20 22 22 27 32 29 25 28 27 21 16 20 25 26 24 20 17 14 13 11 12 17 17 13 8 4 12 16 14 16 14 12 14 11 9 12 13 12 11 8 7 7 2 6 7 6 7 7 10 10 7 7 6 9 14 14 17 20 19 20 23 23 21 21 24 28
31 30 31 33 33 32 29 21 17 22 17 4 4 11 16 18 16 15 9 5 8 9 9 9 11 16 18 17 17 21 22 21 25 27 26 29 28 17 12 12 12 11 15 18 15 13 9 5 13 18 16 18 16 12 15 12 9 10 14 16 11 6 8 7 4 6 8 7 4 4 8 7 3 6 5 5 9 12 14 17 19 20 21 22 21 22 25 28
32 31 32 32 32 33 29 19 19 24 13 3 10 16 17 16 14 11 4 3 5 4 1 3 6 4 6 11 16 16 9 12 29 32 24 29 33 19 10 10 8 10 14 14 8 7 7 8 12 16 16 18 17 13 15 14 10 8 10 13 10 7 10 10 7 5 6 7 2 3 8 7 3 6 4 6 8 11 12 14 18 20 21 23 25 24 26 28
33 33 33 31 30 30 27 20 20 22 15 13 18 18 17 14 11 7 1 3 4 3 3 2 3 4 4 9 21 18 3 2 12 25 29 31 32 23 12 10 7 7 9 7 6 5 9 13 12 14 15 15 14 13 15 17 12 6 7 11 12 12 13 12 9 8 8 9 6 6 8 8 9 7 4 8 9 10 13 14 16 21 23 25 26 26 27 30
33 34 33 32 29 25 23 22 20 21 20 22 21 18 16 12 7 2 1 3 2 4 4 3 4 4 3 11 26 15 4 2 4 15 32 33 29 20 12 13 12 11 13 11 9 6 12 17 16 16 14 11 13 12 14 18 14 6 7 9 11 11 12 10 9 8 6 6 9 8 7 7 10 5 4 7 9 10 13 16 17 20 24 26 28 29 29 31
33 33 33 32 27 21 19 20 20 21 23 23 21 18 15 10 3 1 2 4 1 4 3 4 4 2 4 11 20 13 7 2 2 7 24 29 29 18 9 14 13 10 15 16 12 5 8 15 18 16 12 11 13 10 13 17 14 5 7 7 7 7 6 6 7 6 3 5 11 9 7 6 10 6 5 6 8 10 12 13 15 21 26 28 30 31 31 31
34 33 32 30 24 19 18 18 18 21 23 23 20 16 12 5 2 3 4 3 1 3 3 3 3 2 3 7 9 11 8 5 5 8 18 19 24 17 5 10 11 7 10 13 12 4 3 7 14 13 12 12 11 8 12 17 13 7 8 7 5 5 4 3 4 3 4 8 11 10 9 7 10 8 9 7 7 9 9 9 12 17 24 28 29 31 32 32
34 33 31 23 17 17 20 20 19 20 22 21 18 13 6 1 2 4 5 1 3 3 3 2 2 2 0 3 4 5 8 7 1 10 13 10 15 13 6 9 8 6 7 9 11 8 3 6 8 8 13 14 9 8 10 14 13 9 8 9 6 5 3 3 4 4 8 9 5 8 11 11 11 7 7 9 9 11 11 11 11 15 21 27 30 32 34 34
34 34 27 16 12 15 18 21 21 20 20 19 16 10 2 3 4 6 3 3 2 2 4 2 2 5 5 4 3 3 4 5 6 10 10 10 12 12 11 11 10 9 10 10 9 9 9 7 5 5 12 16 12 9 8 9 12 11 9 9 8 6 4 7 8 6 9 7 2 3 7 11 12 6 3 8 10 11 13 13 13 15 20 26 29 33 34 34
35 33 24 10 11 16 15 18 22 20 19 19 14 6 2 4 4 6 5 3 2 4 5 4 7 9 7 3 1 3 3 2 7 11 10 10 10 11 11 9 11 8 5 9 10 7 7 7 7 6 7 15 16 10 8 8 11 13 11 10 10 7 7 9 8 6 6 5 3 3 4 7 10 5 7 13 14 15 17 18 20 20 23 28 32 34 34 33
35 32 21 7 10 18 15 16 20 19 19 18 10 2 5 7 2 1 2 3 5 7 7 8 11 9 5 2 2 2 1 2 3 7 10 10 9 11 10 8 11 7 2 7 9 8 10 7 10 14 8 14 18 13 11 10 10 13 11 10 10 7 7 7 5 5 4 2 3 5 5 6 5 1 6 12 14 17 19 21 24 26 28 30 28 29 30 32
33 30 17 4 9 18 16 15 18 18 17 14 5 4 6 6 2 3 3 5 7 8 11 13 9 5 2 2 2 4 1 1 2 3 9 9 8 9 7 5 6 4 4 8 5 7 13 6 7 16 13 15 17 13 12 12 9 10 10 10 11 8 5 3 2 3 1 1 3 5 4 4 2 3 4 5 8 12 14 15 17 21 24 22 17 20 26 31
33 29 12 4 13 19 17 15 15 16 12 7 2 5 5 3 3 3 5 8 7 9 13 12 4 2 2 0 1 5 3 2 4 1 6 4 2 1 1 2 2 3 1 6 4 5 10 5 5 11 11 15 18 15 14 13 7 6 9 11 8 7 8 6 3 1 1 5 5 5 7 5 4 8 8 8 7 9 11 12 13 17 19 16 16 20 25 29
36 29 11 9 20 22 19 16 16 15 8 1 3 4 3 2 3 5 8 11 10 9 9 5 2 2 2 1 2 6 6 3 3 1 3 3 2 5 5 3 3 6 6 2 3 3 4 4 5 10 12 13 16 17 16 15 11 7 9 10 7 6 8 7 5 3 5 8 5 5 10 8 5 6 4 9 10 10 11 11 13 15 16 16 17 21 27 30
35 25 11 14 24 23 19 16 14 10 3 2 5 4 3 3 6 9 11 13 11 8 6 4 3 3 3 3 2 6 8 4 3 3 1 2 2 4 6 3 2 6 8 5 2 2 3 4 5 11 15 10 11 14 12 12 11 6 7 10 8 5 8 7 6 6 8 8 5 5 8 9 9 7 2 6 10 11 11 11 12 13 14 16 19 21 26 29
31 19 9 16 24 19 14 11 8 2 3 1 3 3 4 6 10 14 15 14 9 6 5 4 3 3 4 4 3 5 6 4 4 3 1 2 2 4 8 4 4 9 9 3 2 0 2 5 4 7 9 10 10 11 10 10 8 3 7 11 6 4 6 8 6 4 5 7 5 3 5 6 9 10 9 9 9 10 10 9 10 13 15 18 21 24 26 29
28 14 8 19 24 15 9 9 8 3 1 2 2 3 6 7 11 15 17 14 7 5 5 5 5 5 4 4 3 4 4 4 4 3 2 3 3 5 9 8 5 11 10 3 2 1 1 4 4 3 5 9 9 9 11 13 10 7 8 11 8 4 3 5 5 4 4 5 4 4 6 4 2 6 13 16 13 11 11 10 9 12 17 20 25 29 29 31
24 8 8 21 22 12 8 9 7 4 1 2 3 5 8 8 10 15 16 14 8 6 7 7 7 6 4 4 3 3 3 3 3 3 3 4 4 4 8 10 8 9 8 1 1 2 0 3 5 5 5 7 7 10 15 17 16 14 11 11 12 9 6 6 7 6 6 5 4 4 7 4 2 3 8 12 12 10 11 10 9 12 17 22 28 33 32 30
17 6 10 20 20 14 8 6 6 5 2 4 6 7 8 9 10 13 13 13 10 6 6 6 6 4 2 3 2 2 3 3 3 3 3 5 6 5 8 14 12 8 5 2 3 3 2 1 3 5 4 3 4 8 10 9 10 12 11 11 13 11 9 8 7 6 8 6 2 2 7 4 3 5 7 9 10 11 11 10 10 12 17 23 29 33 30 27
12 10 13 18 19 16 9 3 6 6 2 7 9 7 7 8 9 11 11 11 11 8 5 4 4 3 2 2 2 2 3 4 4 4 4 5 6 6 10 15 14 9 4 3 2 3 2 1 4 3 0 2 3 5 5 3 5 9 9 10 11 12 12 11 7 4 6 7 5 4 8 4 2 2 4 5 5 7 8 9 10 13 17 22 27 30 29 27
11 12 13 17 18 18 11 4 6 5 5 10 11 7 6 7 8 10 11 10 10 8 6 5 5 4 4 4 3 4 4 3 4 6 4 4 4 7 12 16 14 9 6 5 5 3 2 1 3 5 4 4 5 7 7 5 4 4 4 4 5 11 16 14 6 2 5 10 11 9 8 3 2 1 2 3 4 5 7 9 10 12 14 17 21 24 25 26
11 8 12 18 18 16 11 6 6 6 7 11 11 8 8 7 7 9 11 11 11 11 7 6 7 6 6 5 3 5 7 4 3 4 4 4 4 6 13 15 12 10 9 11 10 5 1 0 1 5 9 10 8 7 6 4 2 1 1 1 2 6 13 14 7 4 6 9 11 12 8 2 3 1 3 4 4 5 8 10 9 12 15 17 19 21 21 20
8 4 9 16 13 10 9 8 9 7 7 10 9 7 10 8 5 8 9 8 12 15 9 7 10 8 8 8 3 5 8 5 4 4 4 5 4 5 11 11 8 12 13 14 14 6 1 1 2 1 1 2 2 1 2 3 1 2 2 3 3 3 5 7 8 8 6 5 9 13 10 5 4 4 3 4 5 6 8 8 8 12 18 20 21 22 21 20
5 3 7 9 8 8 8 8 11 10 9 9 6 5 10 10 6 7 6 4 11 17 9 6 12 10 9 10 5 3 6 4 5 5 5 5 3 5 9 5 6 13 14 13 14 6 1 2 2 3 4 3 3 4 4 3 2 3 5 7 6 4 4 6 9 7 5 7 11 11 10 11 9 5 3 4 5 6 6 7 9 12 16 17 17 19 19 20
4 5 7 6 4 6 7 9 13 12 11 10 5 4 9 11 8 8 6 4 9 13 7 5 12 13 12 11 6 3 5 3 3 5 4 5 4 5 7 4 5 12 13 10 11 6 1 1 2 2 4 4 5 6 3 2 3 4 6 9 9 8 7 8 9 8 6 9 10 6 8 11 9 9 10 8 5 6 8 10 11 13 16 17 14 14 15 16
5 5 7 6 5 8 10 11 13 12 11 9 4 4 9 10 9 9 7 5 5 9 8 6 11 13 12 11 7 4 4 3 3 4 5 6 6 4 5 2 3 10 12 9 8 5 2 1 3 4 6 5 6 6 3 1 3 6 8 10 11 12 11 11 11 11 11 11 12 11 10 11 8 8 12 13 12 12 14 13 14 17 20 20 17 13 12 14
7 6 7 8 8 10 10 10 10 9 8 7 5 6 8 10 11 11 9 6 3 5 8 9 11 11 10 10 7 4 6 6 5 4 5 7 5 3 3 2 2 8 9 6 5 6 4 1 3 5 6 5 4 5 4 3 5 9 10 11 11 12 12 12 11 11 11 10 11 14 14 10 5 4 9 13 12 11 12 13 18 23 24 21 19 17 14 14
9 9 9 8 7 8 8 8 8 7 5 5 5 7 9 10 12 13 10 5 1 4 9 11 11 9 7 8 5 4 7 10 8 7 7 7 6 4 3 3 4 6 5 4 3 4 4 1 2 3 5 5 3 4 7 9 10 12 12 12 12 12 11 9 9 9 10 8 9 12 12 8 4 4 8 11 10 8 9 10 17 25 25 21 20 20 18 18
11 11 9 7 5 5 7 7 7 6 5 5 7 9 10 11 12 12 8 2 2 7 11 11 10 8 6 6 5 7 12 14 13 12 12 11 11 11 11 10 9 6 3 3 3 2 2 2 1 2 4 4 3 5 9 10 10 9 8 6 8 9 8 9 9 9 10 9 9 9 7 6 5 7 10 11 11 10 10 13 20 24 23 22 23 22 22 24
Wind_Direction
342 339 337 334 332 330 328 327 323 320 316 310 307 303 299 295 292 290 288 286 286 286 287 288 287 288 287 287 283 283 285 281 281 275 268 272 279 268 256 248 238 228 225 222 221 187 166 171 175 174 169 169 177 176 178 180 174 184 211 233 237 245 243 237 237 305 330 333 159 178 181 162 151 164 156 147 139 140 155 158 159 175 207 186 190 179 163 161
340 339 336 333 331 329 327 326 324 322 319 316 313 308 305 300 295 290 287 285 283 283 284 286 286 287 289 289 286 289 288 287 287 272 265 271 273 271 261 248 237 230 226 220 221 206 180 174 175 170 164 167 177 175 180 184 181 191 205 226 232 222 205 239 265 302 309 313 263 194 197 184 167 161 164 170 148 150 159 158 159 155 157 169 172 172 165 163
341 340 337 334 332 329 328 326 324 323 320 319 315 313 311 306 302 295 289 284 281 282 282 284 285 286 288 287 289 293 294 300 291 274 272 272 264 263 257 246 235 229 227 225 224 218 203 182 174 168 161 166 175 175 184 186 189 206 213 234 244 233 241 257 267 292 313 311 266 195 199 215 173 158 169 178 157 167 180 172 168 162 157 159 161 167 166 165
343 341 339 337 334 332 330 328 326 324 321 319 317 315 312 308 306 300 294 287 282 279 279 282 283 284 287 286 290 293 304 310 289 276 274 246 219 219 250 235 226 225 222 227 225 216 210 188 174 168 164 168 175 180 191 191 187 198 211 232 234 207 235 260 274 301 339 338 244 184 186 205 173 168 175 163 156 192 207 193 184 180 169 161 163 169 169 168
344 343 341 339 337 335 333 331 329 326 323 320 318 315 311 308 304 301 298 291 286 279 276 279 280 284 286 285 286 289 309 320 280 253 194 166 183 241 269 229 217 216 211 212 204 199 198 182 169 165 171 170 173 185 204 201 196 206 223 236 237 244 272 286 288 311 348 11 159 175 188 186 167 186 186 172 182 210 215 205 194 188 182 173 169 170 170 172
346 344 342 341 339 337 336 334 332 328 325 322 319 316 312 308 303 299 295 292 290 283 278 276 276 280 281 285 284 275 262 253 223 167 171 189 269 275 278 236 209 202 200 196 188 186 181 169 163 167 179 177 181 191 206 201 205 232 237 239 243 254 267 276 277 290 311 308 238 205 198 176 171 202 200 193 202 201 226 213 198 194 190 180 170 170 172 175
349 347 345 343 341 339 338 337 334 330 326 323 320 317 313 309 304 299 294 293 290 286 281 275 274 274 277 282 278 264 243 248 240 202 229 272 279 274 280 250 206 192 186 185 182 178 172 168 169 171 176 183 194 199 198 197 209 232 247 246 247 254 257 267 274 280 285 268 268 237 194 185 193 206 198 205 211 203 281 222 200 195 184 177 171 174 176 176
351 349 346 344 343 341 339 337 335 331 327 322 320 318 315 311 305 301 297 293 291 288 282 275 272 269 271 273 271 263 246 249 250 249 263 266 268 271 270 241 201 187 181 185 183 179 174 172 175 170 178 188 188 198 198 194 211 228 246 258 259 263 262 269 273 274 271 259 263 226 201 205 204 197 195 209 209 206 249 200 194 192 179 176 175 176 178 178
351 348 346 344 342 340 338 337 335 331 326 320 319 318 316 312 307 304 300 296 291 286 281 275 269 264 265 265 264 263 253 257 268 267 263 257 259 260 252 232 197 183 180 187 185 180 175 175 179 173 183 186 170 193 201 205 212 221 236 253 262 267 270 274 275 272 267 255 243 217 220 220 203 192 220 215 200 203 216 187 188 187 179 176 177 180 179 180
349 346 344 342 340 340 338 337 334 330 324 319 319 319 317 313 308 305 302 299 292 283 278 271 265 260 259 256 242 246 262 269 273 263 260 248 241 234 235 228 196 181 179 184 183 182 181 184 184 171 170 185 185 195 198 212 224 230 241 253 262 270 276 275 273 270 267 255 231 219 232 225 192 195 233 203 192 202 196 179 186 184 180 178 179 184 183 184
347 344 342 340 339 339 337 337 335 330 324 320 320 318 317 314 309 306 302 300 293 283 275 266 262 256 255 247 224 231 259 254 215 227 243 201 201 209 220 214 194 184 180 182 185 189 193 193 182 168 164 181 192 207 213 223 238 258 265 271 269 275 280 274 270 264 257 251 224 217 237 216 172 207 226 172 183 198 186 176 182 182 182 180 180 184 187 189
346 343 341 339 338 338 337 337 335 331 327 324 322 319 317 315 311 306 302 300 293 282 270 261 256 251 251 244 237 238 248 241 223 220 166 140 142 149 196 205 192 186 184 184 187 192 197 196 183 177 178 164 173 196 224 227 236 250 258 274 275 281 284 272 268 250 217 233 216 205 237 209 183 219 213 179 183 186 182 178 177 181 182 181 181 184 188 191
347 344 342 340 339 339 338 337 334 331 329 327 325 321 318 316 313 307 304 301 292 281 265 255 249 245 239 241 247 244 238 239 234 229 233 203 141 121 154 199 188 184 188 191 192 192 195 197 190 188 188 168 168 166 183 209 232 241 242 259 272 280 280 265 265 223 193 228 197 178 238 229 203 217 197 185 183 174 177 178 176 181 181 182 184 185 189 191
348 346 344 342 342 342 341 339 335 331 331 329 326 322 320 318 314 309 307 305 295 280 259 246 241 236 229 240 253 248 229 231 231 228 225 212 180 151 165 192 188 183 186 195 196 191 194 197 193 193 196 188 168 179 212 292 236 243 244 239 251 263 254 150 329 192 186 221 179 178 256 255 195 204 189 186 186 177 178 179 177 180 179 184 187 189 192 193
348 346 344 343 343 343 344 343 338 334 332 330 327 325 323 320 316 313 313 311 301 280 254 236 227 216 229 253 257 251 230 224 227 226 216 211 205 201 193 188 193 188 185 195 199 194 193 192 190 190 198 207 207 229 247 279 250 246 256 234 220 233 251 303 313 237 229 216 177 189 261 266 175 195 189 186 187 183 181 180 179 181 181 183 187 191 195 197
347 345 344 343 342 343 345 345 341 337 334 331 331 328 324 320 315 313 315 317 312 277 236 223 215 203 227 272 259 250 238 225 227 227 220 218 217 220 214 189 189 193 191 196 200 198 192 184 189 197 201 209 213 226 240 256 241 214 230 244 231 228 264 301 328 222 238 180 181 206 253 274 211 184 187 185 186 184 182 180 180 182 182 183 186 190 194 197
346 344 343 341 341 340 342 345 344 340 335 334 335 332 324 318 310 307 310 324 332 265 213 210 197 204 236 255 253 250 243 229 226 226 220 216 217 219 210 185 182 191 192 188 186 187 185 180 186 202 212 210 197 200 215 232 229 198 209 243 252 243 265 270 240 73 242 195 204 219 242 267 286 145 182 187 187 187 185 183 182 182 182 184 186 189 193 195
345 343 341 340 339 338 339 344 345 341 337 337 342 337 320 316 308 296 287 295 329 206 220 183 160 203 246 233 235 222 215 220 213 216 211 206 210 210 202 189 180 180 176 167 163 167 177 183 188 200 208 205 195 198 209 219 215 204 206 227 245 238 244 253 251 28 338 295 260 230 238 262 269 182 182 193 191 192 193 187 184 183 182 184 186 190 194 197
345 343 340 338 337 336 338 342 344 344 339 340 348 340 319 324 312 287 272 281 271 217 250 179 172 202 279 230 229 206 179 181 192 201 194 195 201 200 202 194 174 166 160 164 174 169 171 169 190 211 211 204 203 206 211 211 46 213 213 227 244 239 242 254 262 336 321 295 275 261 259 273 275 206 186 196 195 199 200 188 185 185 184 185 188 193 195 199
344 342 339 337 336 336 337 342 344 346 343 346 352 347 345 348 329 284 301 296 270 245 258 237 215 234 261 281 247 218 214 210 202 195 187 191 189 183 183 174 162 160 162 167 169 169 178 188 208 211 209 200 197 203 210 221 307 230 205 223 240 245 249 258 275 356 339 303 279 285 293 292 291 257 200 194 194 200 200 190 189 189 189 189 191 195 198 202
344 342 339 337 336 335 338 342 343 345 350 350 350 7 40 21 3 324 316 305 285 263 260 256 245 248 253 255 252 234 236 236 221 199 190 189 178 171 168 162 157 171 176 156 139 151 183 214 220 205 193 182 186 195 202 217 237 245 221 227 238 240 250 264 283 276 287 294 280 290 296 289 292 281 209 188 189 200 201 195 194 194 194 195 195 197 199 202
346 343 341 338 336 336 339 342 343 344 349 345 343 35 57 29 2 330 312 299 293 289 276 263 253 251 251 248 246 248 265 274 232 206 191 181 178 174 166 169 174 171 165 150 138 158 199 227 215 183 168 171 184 192 196 212 225 238 236 239 248 242 261 274 275 269 251 260 278 295 293 285 292 279 208 191 194 202 204 201 197 195 195 197 198 198 196 195
347 344 342 340 338 337 339 343 343 343 345 340 341 35 26 357 346 332 308 277 290 292 279 262 249 246 246 242 243 242 242 247 235 219 199 179 182 184 170 175 185 159 159 179 180 180 204 226 195 167 170 185 190 191 196 208 216 227 228 229 243 236 248 257 230 42 288 252 279 300 297 285 283 259 211 201 203 207 206 205 203 199 199 202 201 198 194 194
348 345 342 342 339 338 342 343 339 344 349 346 356 9 353 338 335 334 317 262 281 288 276 262 248 247 243 239 238 229 223 226 226 221 206 184 177 183 181 175 173 166 176 191 194 198 207 183 166 171 180 193 198 192 194 208 214 220 223 226 237 228 232 249 296 340 307 270 256 280 292 282 260 245 235 201 202 211 207 205 207 206 207 208 204 201 200 200
348 346 344 343 340 338 344 345 338 349 357 9 347 335 331 330 327 331 324 265 269 277 278 254 236 247 238 226 223 214 213 222 226 220 205 192 182 170 177 176 173 189 190 186 194 214 216 142 159 178 183 192 203 203 199 206 217 219 222 226 230 222 228 242 277 308 295 276 240 236 274 275 230 243 244 171 195 211 206 205 210 210 209 209 206 205 204 205
347 347 345 344 344 340 344 352 342 346 359 353 330 323 319 325 323 322 316 275 277 247 210 188 211 216 186 193 190 181 187 231 235 224 204 199 193 172 158 171 189 204 180 172 194 230 206 151 161 184 187 190 200 212 203 197 218 230 209 207 210 217 228 232 245 264 273 279 254 195 260 278 270 252 221 171 202 211 205 211 214 212 210 210 209 208 205 206
347 348 346 345 347 342 344 350 339 341 349 335 327 324 321 322 321 324 281 263 267 184 125 146 168 129 142 184 168 159 159 214 221 215 203 200 193 183 181 172 186 198 148 145 210 213 172 163 170 184 189 194 202 212 196 188 216 231 159 171 195 216 229 233 242 251 260 278 269 220 238 270 272 259 191 172 202 212 209 213 214 214 213 212 213 211 208 207
346 348 348 345 347 345 340 339 337 338 339 333 329 328 327 320 311 310 251 289 260 122 102 125 114 104 122 170 171 174 317 76 152 202 199 197 188 185 200 189 184 180 154 168 205 175 160 178 182 179 186 200 209 207 178 181 215 224 148 174 195 211 226 229 237 246 251 271 267 235 204 244 266 253 145 171 204 218 216 213 213 213 212 212 213 212 209 208
344 347 349 346 345 346 337 334 337 333 330 331 331 329 325 315 298 197 238 281 166 90 66 129 113 66 102 154 188 222 310 338 348 182 184 191 189 187 210 196 181 164 169 192 211 165 158 192 186 175 187 206 208 197 163 180 211 198 150 169 176 186 204 208 225 242 231 243 257 241 184 228 269 244 176 180 209 221 221 214 213 212 211 211 212 212 210 207
344 347 350 347 347 346 337 334 334 330 330 332 329 327 325 302 219 189 213 247 5 43 22 105 90 356 118 143 209 245 255 282 348 149 168 183 189 191 193 174 167 154 179 211 224 196 94 183 181 178 200 205 195 174 165 187 195 146 151 172 166 178 177 186 215 232 242 245 250 237 200 219 271 248 195 188 202 211 218 217 212 211 211 212 212 212 210 206
344 348 350 350 353 351 340 334 330 330 333 332 326 322 316 222 205 218 206 254 353 12 13 39 55 14 73 196 234 228 225 256 328 154 168 172 183 187 158 152 165 170 186 214 224 220 201 170 167 188 206 196 176 170 179 189 183 163 185 196 193 200 193 222 214 203 242 245 231 221 206 209 246 247 184 189 197 197 211 220 211 206 211 212 212 212 210 207
344 348 352 353 358 354 342 331 325 328 336 335 329 320 261 195 225 224 242 321 329 14 17 0 341 345 326 280 248 216 222 221 175 168 176 177 181 185 181 178 172 177 198 204 198 206 213 198 163 187 201 190 182 185 184 184 187 194 201 195 203 207 197 226 220 211 241 239 160 195 199 210 240 257 175 198 203 202 215 223 216 208 207 208 209 211 210 208
345 348 349 350 357 353 341 328 321 323 339 340 330 323 213 222 227 217 257 312 25 8 349 314 317 317 290 264 275 255 251 183 177 183 182 184 187 189 197 195 179 184 205 190 183 186 204 214 199 193 194 189 189 187 180 182 192 201 201 192 199 199 198 218 218 221 247 231 181 170 183 231 257 254 206 210 209 207 212 218 219 217 214 214 214 212 208 206
344 347 347 339 352 349 340 331 322 321 338 341 328 287 204 224 254 293 280 333 357 342 327 317 318 306 258 216 13 342 246 137 165 184 179 182 191 191 195 193 193 203 122 165 191 192 198 218 200 197 187 175 189 201 184 171 184 200 201 199 207 208 207 214 208 221 248 227 167 158 180 231 250 204 207 216 215 210 211 215 219 221 225 225 220 211 206 206
342 347 348 318 333 341 338 333 325 321 334 341 319 223 214 224 303 12 13 356 344 336 326 317 307 283 239 171 21 10 27 82 52 181 185 184 188 190 190 186 194 209 176 181 190 190 208 227 180 192 182 162 186 201 167 158 182 194 187 203 220 209 191 218 240 217 258 282 199 184 220 250 267 292 266 240 234 225 221 221 219 224 228 224 212 203 204 206
343 350 355 319 331 336 335 332 322 316 327 343 281 231 240 274 347 10 11 357 342 333 323 314 294 250 291 223 21 12 9 2 16 188 184 165 144 91 40 42 43 9 259 195 172 168 208 217 140 171 178 180 190 179 162 174 180 165 187 205 205 179 189 227 248 141 224 262 228 201 243 267 280 273 246 210 222 229 229 229 224 228 228 217 207 204 205 206
346 350 354 341 340 338 334 326 314 308 312 301 240 248 271 320 8 14 1 350 336 325 319 317 352 341 331 354 356 356 343 324 357 346 170 131 60 20 359 349 29 13 351 287 206 162 195 200 136 156 184 199 187 169 174 185 159 146 198 187 136 151 208 228 236 213 222 245 237 208 240 248 238 260 225 188 203 213 219 224 224 230 231 225 219 212 211 210
346 349 357 347 340 338 334 325 315 305 279 202 240 263 292 299 342 355 348 342 331 318 310 296 317 359 4 348 345 352 341 325 359 9 120 113 57 26 358 321 344 353 340 308 242 161 206 209 165 180 192 181 160 170 185 182 167 169 183 159 142 182 200 192 215 228 219 235 248 215 234 241 226 230 222 191 203 208 213 216 221 227 227 228 226 219 217 214
349 352 0 346 339 339 346 351 355 333 203 249 264 270 321 314 324 336 336 333 321 306 305 282 287 349 349 340 352 356 350 349 346 351 79 30 47 47 16 346 301 332 334 284 228 161 221 209 192 199 188 153 155 186 192 181 187 174 148 162 179 212 189 180 198 215 209 228 249 229 231 241 226 219 221 221 215 215 218 214 219 226 224 224 226 223 219 216
355 353 347 348 344 344 7 29 32 43 194 343 315 310 339 329 318 327 331 331 318 286 295 289 297 316 324 337 347 343 345 351 346 354 55 27 73 79 25 5 319 329 333 278 229 333 233 205 203 159 144 160 176 194 193 187 188 179 172 184 192 187 182 187 199 208 214 224 231 245 253 253 206 197 209 214 212 212 218 215 217 224 226 227 229 229 226 221
359 346 332 353 356 356 23 44 30 7 19 21 355 329 334 328 323 328 331 334 326 279 275 286 293 297 297 307 325 346 333 332 1 27 58 31 44 66 18 357 329 320 322 312 70 4 329 197 201 170 164 185 180 188 201 200 193 192 193 193 191 190 182 186 203 207 215 227 212 239 264 258 150 172 206 211 211 213 217 219 223 229 230 232 233 234 233 229
0 340 341 359 7 12 30 52 23 9 24 2 344 326 329 334 331 331 334 339 343 321 290 291 293 294 294 292 307 13 359 358 15 30 69 57 41 29 359 345 333 326 331 49 63 4 353 160 199 195 192 207 186 198 219 224 210 206 205 197 196 196 187 194 210 191 196 221 198 245 271 264 154 173 196 203 211 219 220 217 225 238 239 239 240 240 238 237
347 331 351 7 14 21 34 52 14 11 3 349 341 325 339 352 344 343 345 343 346 341 321 319 326 330 354 5 4 4 0 13 37 49 77 80 50 8 350 347 343 347 10 30 33 2 347 189 197 197 223 316 267 239 248 259 229 223 220 210 206 202 197 208 220 178 186 203 181 216 252 236 154 200 209 210 222 232 234 224 226 240 245 246 248 248 247 248
329 317 344 9 24 35 42 33 8 357 340 344 341 339 5 10 357 354 346 338 345 340 320 336 355 349 355 11 38 35 10 16 56 54 60 77 40 353 352 356 355 4 29 15 356 336 305 222 186 181 183 214 231 230 220 193 189 227 232 229 227 212 209 214 212 144 207 204 193 217 240 195 114 323 253 245 255 257 256 243 235 244 251 253 256 258 257 256
337 320 337 353 14 41 48 34 10 353 348 348 337 340 4 8 5 359 338 333 352 349 332 342 349 350 6 12 62 52 23 25 63 56 56 51 29 351 350 353 358 9 13 2 353 334 278 11 208 200 198 201 204 211 212 180 158 250 269 352 316 230 221 222 209 194 215 199 194 217 232 148 103 183 234 240 250 261 264 259 249 251 258 260 262 264 265 265
347 341 340 341 354 24 35 26 12 358 354 351 335 337 359 358 359 1 345 338 353 350 347 5 358 357 16 12 33 53 27 35 66 75 73 39 19 345 343 348 8 12 4 360 356 344 198 66 0 298 185 192 190 215 331 7 348 270 305 313 312 296 262 240 221 214 195 178 212 224 229 237 202 182 197 225 233 248 261 267 261 256 260 261 262 265 267 270
351 354 352 342 341 352 359 7 6 356 346 345 331 321 350 356 356 5 6 354 352 347 345 23 17 16 19 7 2 27 18 38 69 64 61 39 15 339 343 359 29 11 5 3 358 351 135 57 48 61 49 34 349 327 332 334 291 274 293 293 288 298 294 252 236 229 172 186 227 225 222 241 231 199 223 241 234 241 248 255 257 260 268 270 266 264 264 266
355 339 341 344 336 334 339 342 341 337 332 335 332 319 343 355 358 2 4 337 351 356 351 12 16 12 7 0 353 7 12 34 62 45 40 28 7 346 358 52 51 14 10 7 6 7 325 24 72 38 357 346 321 313 313 293 276 268 271 279 283 279 269 256 253 255 221 225 252 241 218 234 232 222 237 242 237 243 248 254 260 268 282 288 281 265 259 263
343 324 323 330 319 310 309 312 317 324 330 330 333 340 341 347 351 355 349 314 340 15 16 12 4 357 354 355 356 20 25 21 33 35 23 7 356 347 355 31 49 18 11 7 10 7 328 56 71 350 325 320 311 309 312 284 284 285 273 267 268 267 263 255 253 259 258 261 279 283 262 249 238 230 239 239 237 245 255 265 272 277 284 283 276 265 261 265
338 327 315 313 311 309 306 309 315 323 330 329 337 350 341 337 342 346 336 309 302 12 17 9 354 344 342 344 351 33 33 8 352 352 354 348 345 353 359 11 25 9 5 6 4 354 342 32 45 350 318 303 309 311 308 303 297 291 278 262 257 256 254 248 243 250 258 263 270 274 274 268 249 247 260 257 255 257 259 262 264 266 269 265 260 260 259 257
328 324 316 307 308 316 316 321 326 322 324 332 342 347 338 331 338 339 327 308 349 26 8 354 341 334 331 331 342 20 1 342 317 301 308 304 295 303 314 318 335 345 357 7 349 343 341 331 18 350 302 287 312 323 317 318 308 286 267 255 249 245 247 249 238 229 232 244 255 257 263 267 238 220 251 261 265 260 251 252 254 255 255 252 251 256 257 256
328 325 322 310 302 316 322 325 326 317 320 332 334 333 328 322 330 337 331 323 34 2 348 335 324 326 326 322 342 349 329 314 300 293 287 274 269 274 273 273 283 289 294 318 322 309 292 285 296 299 280 283 309 321 324 323 302 272 253 246 245 249 258 260 253 243 234 236 248 251 258 268 242 220 230 244 250 246 238 243 248 250 250 249 250 253 257 263
Height
1523 1521 1520 1519 1517 1516 1515 1514 1513 1511 1510 1509 1508 1507 1507 1506 1505 1505 1504 1503 1502 1500 1500 1499 1499 1499 1498 1498 1497 1496 1495 1495 1494 1493 1491 1487 1488 1491 1493 1495 1496 1497 1498 1500 1501 1502 1504 1507 1508 1510 1512 1515 1516 1517 1518 1519 1520 1522 1523 1526 1526 1522 1517 1512 1510 1508 1507 1507 1504 1504 1503 1503 1506 1509 1510 1512 1514 1515 1516 1519 1519 1520 1521 1522 1522 1524 1527 1529
1522 1520 1519 1518 1516 1515 1514 1513 1511 1510 1509 1508 1506 1505 1505 1504 1503 1503 1502 1501 1500 1499 1498 1498 1497 1497 1497 1496 1495 1495 1493 1493 1492 1489 1486 1486 1487 1488 1490 1492 1494 1494 1495 1497 1499 1500 1502 1504 1506 1509 1512 1514 1515 1517 1518 1518 1519 1519 1520 1523 1520 1514 1511 1507 1506 1505 1505 1505 1503 1504 1504 1503 1504 1506 1509 1511 1513 1514 1516 1518 1519 1520 1520 1521 1522 1524 1527 1529
1520 1519 1518 1516 1515 1514 1512 1511 1510 1509 1507 1506 1505 1504 1503 1502 1501 1500 1500 1499 1498 1497 1496 1496 1495 1495 1495 1494 1494 1494 1492 1491 1488 1484 1482 1484 1485 1485 1486 1488 1489 1491 1493 1495 1497 1499 1501 1503 1505 1508 1511 1513 1514 1516 1517 1517 1517 1516 1518 1521 1514 1508 1507 1505 1505 1504 1504 1503 1501 1503 1505 1505 1505 1505 1507 1509 1512 1514 1514 1515 1516 1518 1519 1520 1522 1523 1526 1528
1520 1518 1516 1515 1514 1512 1511 1509 1508 1507 1506 1504 1503 1502 1501 1499 1499 1497 1497 1496 1496 1496 1495 1494 1493 1493 1494 1493 1493 1492 1492 1490 1484 1479 1479 1481 1482 1483 1484 1484 1486 1489 1492 1495 1497 1499 1501 1503 1505 1508 1510 1512 1513 1515 1515 1515 1515 1514 1514 1514 1508 1505 1506 1505 1504 1504 1503 1502 1502 1503 1505 1506 1506 1507 1506 1507 1512 1514 1510 1510 1511 1512 1515 1518 1520 1522 1524 1527
1519 1517 1516 1514 1512 1511 1509 1508 1506 1505 1504 1503 1501 1500 1499 1497 1496 1495 1494 1493 1494 1494 1493 1493 1491 1491 1492 1491 1492 1491 1493 1490 1480 1477 1479 1479 1481 1482 1482 1483 1484 1487 1490 1493 1496 1498 1501 1502 1505 1508 1509 1510 1512 1514 1512 1512 1512 1512 1509 1507 1505 1505 1506 1504 1503 1504 1504 1503 1503 1504 1505 1505 1506 1507 1506 1505 1508 1508 1505 1507 1509 1509 1511 1514 1516 1519 1522 1526
1518 1516 1515 1513 1512 1510 1508 1507 1505 1504 1502 1500 1499 1498 1497 1495 1494 1493 1492 1491 1491 1491 1491 1491 1490 1490 1489 1490 1490 1490 1492 1486 1477 1477 1478 1478 1480 1480 1481 1481 1483 1485 1488 1491 1493 1496 1499 1502 1504 1506 1507 1508 1509 1509 1509 1510 1511 1511 1506 1504 1505 1505 1505 1503 1503 1503 1504 1504 1504 1504 1504 1504 1505 1505 1504 1504 1503 1502 1503 1506 1509 1510 1511 1513 1515 1517 1519 1522
1517 1516 1514 1512 1511 1509 1507 1506 1504 1502 1500 1499 1497 1495 1494 1493 1492 1491 1489 1489 1489 1488 1489 1489 1489 1488 1488 1488 1488 1488 1489 1480 1475 1477 1477 1477 1478 1478 1480 1480 1481 1483 1486 1489 1491 1494 1497 1500 1502 1503 1505 1507 1507 1506 1507 1508 1509 1510 1506 1503 1504 1504 1503 1503 1503 1502 1503 1503 1502 1503 1503 1503 1503 1503 1502 1502 1501 1502 1504 1505 1507 1510 1513 1515 1516 1517 1518 1520
1516 1515 1513 1511 1509 1508 1506 1504 1503 1501 1499 1497 1495 1493 1491 1490 1489 1488 1487 1487 1486 1486 1486 1486 1486 1486 1486 1487 1486 1487 1483 1474 1473 1477 1477 1476 1476 1477 1478 1478 1479 1481 1483 1486 1487 1490 1494 1497 1499 1501 1503 1504 1504 1505 1507 1508 1508 1507 1505 1502 1503 1503 1501 1501 1501 1501 1501 1502 1502 1502 1501 1500 1500 1501 1500 1499 1501 1503 1504 1505 1506 1509 1513 1515 1517 1518 1520 1522
1516 1514 1512 1510 1508 1506 1505 1503 1501 1499 1497 1495 1493 1490 1488 1487 1486 1485 1484 1484 1484 1484 1483 1483 1484 1484 1484 1484 1486 1484 1475 1470 1473 1475 1474 1475 1475 1475 1476 1476 1478 1479 1482 1484 1486 1489 1492 1494 1496 1498 1500 1501 1503 1504 1505 1508 1507 1503 1503 1502 1501 1500 1500 1500 1499 1499 1499 1499 1500 1500 1498 1497 1498 1501 1498 1496 1501 1502 1503 1506 1506 1507 1511 1514 1517 1518 1519 1520
1515 1512 1511 1508 1506 1505 1503 1501 1499 1497 1495 1493 1490 1488 1486 1485 1483 1482 1481 1481 1481 1481 1480 1481 1481 1481 1482 1482 1485 1481 1471 1470 1472 1471 1472 1472 1473 1474 1474 1475 1476 1478 1481 1483 1486 1487 1489 1492 1495 1498 1500 1501 1502 1503 1503 1505 1503 1500 1501 1501 1500 1499 1497 1497 1497 1496 1497 1496 1497 1497 1495 1495 1497 1501 1498 1496 1499 1501 1503 1505 1506 1507 1509 1512 1515 1517 1519 1520
1514 1512 1509 1507 1505 1503 1501 1499 1497 1495 1493 1490 1488 1486 1484 1482 1481 1479 1478 1478 1478 1478 1478 1478 1478 1479 1479 1480 1481 1475 1469 1470 1471 1470 1471 1470 1471 1473 1473 1473 1474 1476 1480 1482 1485 1486 1488 1491 1494 1498 1499 1499 1501 1502 1501 1501 1501 1500 1501 1500 1498 1497 1494 1494 1494 1493 1494 1493 1492 1493 1493 1494 1498 1499 1496 1494 1497 1500 1502 1504 1505 1507 1508 1511 1514 1516 1519 1520
1513 1511 1508 1506 1504 1502 1500 1497 1495 1493 1490 1488 1486 1483 1481 1480 1478 1476 1475 1475 1475 1475 1475 1475 1476 1476 1477 1478 1472 1468 1468 1470 1470 1470 1470 1470 1471 1472 1473 1474 1474 1476 1479 1481 1484 1486 1489 1491 1494 1497 1497 1497 1499 1501 1500 1499 1500 1500 1501 1501 1498 1495 1493 1489 1489 1490 1491 1490 1488 1492 1498 1498 1497 1494 1492 1492 1495 1498 1501 1503 1505 1506 1508 1510 1512 1515 1517 1520
1512 1509 1507 1505 1503 1500 1498 1496 1493 1491 1488 1486 1483 1480 1479 1477 1476 1474 1473 1472 1472 1472 1472 1472 1473 1473 1476 1472 1463 1464 1467 1468 1469 1469 1469 1471 1471 1471 1474 1475 1476 1478 1479 1481 1483 1486 1489 1490 1492 1494 1495 1496 1497 1499 1498 1497 1499 1499 1499 1500 1500 1500 1494 1486 1485 1487 1488 1488 1485 1492 1502 1497 1490 1488 1489 1491 1493 1496 1499 1500 1502 1504 1506 1508 1510 1513 1515 1518
1510 1508 1506 1503 1501 1499 1497 1494 1492 1489 1486 1483 1480 1478 1476 1475 1473 1471 1471 1470 1469 1469 1469 1470 1470 1472 1472 1465 1459 1463 1464 1465 1466 1467 1468 1469 1470 1472 1474 1475 1477 1479 1481 1482 1484 1486 1488 1490 1493 1494 1495 1495 1495 1496 1496 1497 1498 1498 1499 1499 1500 1504 1496 1484 1484 1486 1487 1487 1483 1490 1499 1491 1484 1485 1486 1488 1490 1493 1495 1497 1500 1502 1504 1506 1508 1511 1513 1515
1509 1506 1504 1501 1499 1497 1495 1493 1490 1487 1484 1481 1478 1476 1474 1473 1471 1469 1469 1468 1467 1467 1467 1468 1468 1470 1469 1460 1457 1460 1461 1462 1462 1463 1467 1468 1469 1471 1472 1475 1477 1479 1481 1483 1484 1486 1488 1490 1493 1494 1494 1495 1495 1497 1498 1499 1498 1498 1503 1502 1499 1502 1496 1485 1482 1483 1486 1486 1483 1489 1495 1488 1483 1482 1482 1485 1487 1489 1491 1494 1496 1498 1500 1503 1505 1508 1510 1512
1508 1505 1502 1500 1497 1495 1493 1491 1488 1485 1482 1479 1477 1474 1472 1471 1469 1468 1467 1466 1466 1465 1466 1467 1466 1469 1468 1459 1455 1456 1457 1458 1458 1460 1464 1466 1467 1470 1472 1474 1476 1479 1481 1483 1485 1486 1488 1491 1492 1493 1493 1494 1495 1497 1500 1503 1500 1499 1503 1503 1499 1499 1497 1490 1483 1480 1481 1483 1484 1488 1490 1487 1483 1480 1481 1484 1485 1487 1488 1490 1493 1495 1498 1500 1502 1505 1508 1510
1507 1504 1502 1499 1496 1494 1492 1489 1487 1484 1481 1478 1476 1473 1471 1470 1468 1467 1466 1466 1466 1465 1465 1465 1466 1469 1464 1454 1453 1453 1453 1454 1456 1457 1460 1463 1466 1467 1470 1472 1475 1478 1481 1483 1485 1486 1488 1491 1492 1492 1492 1493 1493 1497 1504 1508 1503 1499 1501 1501 1498 1498 1498 1494 1487 1481 1480 1483 1486 1486 1486 1485 1481 1480 1482 1483 1484 1486 1487 1488 1489 1492 1495 1497 1500 1503 1505 1507
1506 1504 1501 1498 1495 1492 1490 1488 1485 1482 1480 1477 1474 1472 1470 1468 1467 1466 1465 1465 1465 1466 1466 1465 1467 1469 1457 1449 1451 1451 1450 1452 1453 1454 1457 1459 1463 1466 1468 1470 1472 1476 1480 1483 1484 1486 1488 1489 1490 1491 1491 1492 1492 1494 1501 1502 1497 1498 1500 1500 1498 1497 1497 1495 1490 1485 1482 1484 1486 1486 1487 1484 1480 1479 1481 1482 1484 1485 1484 1485 1487 1489 1492 1495 1497 1499 1501 1503
1506 1503 1500 1497 1494 1491 1489 1487 1484 1481 1478 1477 1474 1472 1469 1468 1466 1464 1464 1465 1464 1464 1462 1461 1461 1458 1450 1446 1449 1449 1449 1451 1451 1453 1454 1456 1459 1464 1467 1468 1470 1474 1478 1481 1483 1484 1486 1488 1491 1490 1488 1487 1487 1488 1492 1492 1491 1493 1495 1496 1497 1496 1493 1489 1487 1484 1483 1486 1485 1484 1485 1482 1479 1479 1480 1481 1483 1484 1485 1486 1488 1489 1491 1493 1495 1496 1498 1500
1505 1502 1499 1496 1493 1490 1488 1486 1483 1480 1478 1475 1474 1471 1470 1469 1465 1464 1463 1461 1460 1458 1455 1455 1453 1449 1446 1446 1447 1448 1449 1450 1450 1451 1453 1454 1456 1461 1465 1467 1470 1473 1474 1476 1480 1481 1484 1487 1485 1483 1481 1482 1484 1486 1488 1489 1490 1491 1493 1494 1494 1494 1491 1485 1486 1484 1482 1487 1483 1480 1482 1480 1478 1477 1476 1479 1482 1483 1485 1486 1487 1488 1489 1489 1491 1492 1494 1496
1504 1501 1498 1494 1492 1489 1487 1485 1482 1480 1477 1475 1474 1472 1473 1474 1471 1469 1464 1454 1450 1452 1450 1448 1449 1446 1443 1446 1447 1447 1448 1448 1448 1449 1451 1452 1454 1458 1462 1464 1467 1471 1471 1472 1477 1481 1483 1481 1477 1476 1478 1480 1483 1486 1488 1490 1491 1492 1493 1493 1492 1492 1489 1484 1485 1484 1482 1488 1484 1479 1481 1478 1475 1474 1473 1476 1480 1480 1480 1481 1483 1484 1486 1487 1487 1489 1491 1495
1503 1500 1496 1494 1490 1488 1486 1484 1481 1479 1478 1476 1474 1474 1475 1476 1476 1475 1471 1456 1442 1443 1445 1442 1443 1440 1438 1442 1444 1446 1449 1447 1446 1446 1448 1451 1452 1454 1457 1460 1463 1465 1468 1471 1475 1480 1481 1475 1470 1472 1475 1480 1483 1485 1488 1490 1491 1492 1492 1493 1492 1488 1486 1484 1483 1482 1482 1487 1485 1480 1482 1478 1472 1472 1472 1473 1474 1474 1474 1475 1477 1479 1482 1484 1484 1485 1489 1493
1502 1498 1495 1492 1489 1487 1485 1483 1481 1479 1477 1476 1474 1475 1475 1476 1476 1474 1474 1465 1443 1433 1435 1434 1434 1432 1431 1436 1439 1443 1447 1444 1443 1443 1444 1448 1448 1450 1452 1455 1459 1461 1466 1468 1468 1475 1477 1469 1466 1470 1474 1479 1483 1484 1487 1489 1490 1490 1489 1492 1490 1485 1488 1489 1484 1483 1482 1484 1484 1482 1482 1476 1471 1471 1470 1470 1470 1471 1473 1475 1476 1478 1479 1480 1481 1484 1486 1489
1501 1498 1495 1491 1488 1486 1484 1482 1480 1479 1477 1475 1474 1474 1474 1475 1474 1472 1472 1465 1446 1430 1426 1425 1426 1426 1425 1430 1434 1437 1439 1438 1439 1439 1440 1443 1445 1448 1449 1450 1455 1459 1461 1461 1462 1466 1467 1462 1461 1467 1473 1477 1481 1483 1485 1487 1488 1486 1485 1486 1485 1484 1487 1488 1485 1484 1482 1481 1481 1483 1486 1477 1470 1471 1469 1467 1470 1470 1472 1474 1476 1477 1478 1480 1483 1484 1486 1487
1501 1498 1494 1491 1488 1484 1483 1482 1478 1478 1477 1475 1475 1474 1474 1474 1472 1472 1470 1464 1449 1429 1421 1422 1423 1421 1421 1426 1430 1431 1435 1434 1431 1433 1436 1438 1440 1443 1446 1448 1451 1455 1456 1458 1462 1463 1461 1459 1461 1466 1470 1473 1478 1480 1480 1483 1484 1484 1481 1479 1481 1484 1485 1487 1487 1487 1490 1489 1480 1482 1496 1485 1468 1470 1470 1468 1470 1470 1470 1472 1473 1476 1477 1479 1481 1482 1484 1485
1500 1497 1494 1491 1487 1483 1482 1480 1478 1478 1477 1477 1476 1473 1474 1473 1471 1471 1469 1465 1450 1426 1418 1422 1421 1419 1419 1423 1427 1430 1436 1430 1423 1429 1434 1435 1437 1439 1443 1446 1447 1449 1451 1456 1462 1459 1457 1458 1460 1465 1468 1470 1475 1476 1475 1478 1482 1483 1477 1475 1480 1482 1484 1486 1488 1491 1496 1494 1480 1479 1495 1490 1472 1468 1467 1468 1470 1469 1469 1470 1470 1473 1475 1475 1477 1479 1480 1482
1499 1496 1493 1490 1487 1483 1480 1480 1479 1477 1476 1477 1475 1473 1473 1471 1471 1471 1467 1465 1446 1419 1416 1421 1420 1419 1419 1422 1424 1428 1432 1424 1419 1425 1428 1431 1435 1437 1440 1442 1443 1445 1446 1456 1464 1455 1450 1457 1461 1462 1466 1469 1471 1470 1469 1472 1480 1480 1471 1473 1479 1480 1483 1484 1487 1491 1489 1486 1481 1476 1485 1491 1480 1467 1462 1464 1470 1470 1469 1468 1467 1468 1470 1471 1473 1475 1477 1479
1498 1495 1492 1490 1487 1484 1481 1480 1478 1476 1476 1475 1473 1473 1471 1469 1471 1469 1468 1463 1435 1411 1415 1420 1420 1420 1420 1423 1423 1422 1422 1419 1419 1421 1422 1428 1433 1434 1437 1437 1439 1441 1441 1450 1457 1447 1444 1453 1456 1458 1464 1467 1464 1462 1463 1469 1476 1474 1469 1471 1475 1477 1480 1480 1484 1487 1484 1488 1489 1477 1479 1491 1483 1464 1460 1463 1468 1470 1467 1464 1463 1462 1465 1467 1469 1471 1472 1475
1497 1494 1492 1489 1486 1485 1482 1480 1478 1476 1475 1473 1471 1471 1468 1469 1469 1466 1471 1460 1423 1409 1417 1417 1419 1422 1421 1424 1424 1421 1420 1419 1419 1418 1421 1427 1429 1430 1433 1432 1434 1440 1440 1442 1445 1443 1443 1445 1447 1453 1460 1459 1457 1457 1460 1467 1471 1469 1468 1471 1473 1476 1477 1479 1483 1483 1486 1494 1492 1479 1478 1489 1481 1461 1461 1467 1466 1465 1460 1457 1457 1456 1459 1461 1462 1465 1468 1470
1496 1493 1491 1488 1485 1484 1482 1479 1478 1475 1473 1471 1470 1469 1467 1468 1466 1467 1474 1453 1416 1413 1419 1417 1421 1423 1423 1425 1424 1422 1421 1419 1418 1418 1422 1424 1426 1429 1430 1431 1435 1439 1442 1442 1441 1442 1441 1442 1445 1449 1452 1450 1452 1457 1459 1463 1466 1466 1469 1473 1476 1477 1477 1480 1481 1482 1493 1496 1485 1475 1474 1485 1483 1459 1452 1460 1457 1453 1453 1452 1452 1452 1454 1456 1457 1460 1463 1465
1495 1492 1490 1487 1485 1483 1480 1478 1476 1474 1473 1470 1468 1468 1467 1466 1465 1468 1463 1434 1415 1420 1420 1420 1424 1423 1424 1425 1423 1421 1420 1419 1418 1419 1421 1422 1425 1428 1427 1432 1437 1441 1447 1445 1443 1442 1442 1445 1446 1444 1445 1446 1451 1458 1460 1460 1462 1465 1470 1474 1480 1483 1482 1485 1485 1487 1498 1493 1477 1469 1468 1479 1481 1457 1443 1446 1443 1443 1446 1446 1447 1447 1448 1450 1452 1454 1457 1459
1494 1491 1489 1487 1485 1483 1480 1477 1475 1473 1472 1469 1467 1466 1465 1467 1466 1461 1443 1422 1423 1429 1425 1426 1427 1423 1426 1424 1421 1420 1417 1418 1417 1417 1418 1418 1421 1422 1421 1424 1428 1439 1448 1443 1442 1444 1442 1443 1443 1442 1442 1443 1450 1458 1462 1463 1462 1465 1468 1474 1487 1494 1495 1498 1494 1491 1493 1485 1471 1465 1468 1473 1465 1447 1440 1441 1438 1438 1438 1437 1439 1440 1441 1444 1446 1448 1451 1454
1493 1490 1488 1486 1484 1482 1481 1477 1474 1473 1471 1469 1468 1465 1464 1468 1461 1447 1434 1428 1433 1434 1430 1430 1427 1424 1426 1423 1420 1418 1416 1416 1415 1415 1415 1416 1419 1419 1418 1418 1418 1428 1435 1435 1440 1446 1447 1444 1440 1443 1442 1439 1444 1452 1460 1463 1461 1463 1465 1471 1483 1492 1501 1503 1494 1490 1489 1479 1467 1464 1471 1469 1453 1440 1436 1434 1433 1432 1430 1431 1433 1433 1435 1438 1439 1441 1445 1449
1491 1489 1486 1485 1483 1481 1479 1477 1474 1472 1471 1469 1467 1465 1467 1466 1453 1439 1438 1438 1438 1436 1433 1431 1428 1425 1422 1420 1419 1417 1416 1416 1414 1414 1414 1415 1420 1420 1419 1419 1417 1420 1425 1431 1437 1440 1448 1447 1437 1436 1436 1433 1437 1441 1446 1453 1457 1459 1457 1463 1471 1474 1485 1491 1487 1487 1486 1476 1470 1471 1472 1462 1449 1440 1429 1424 1424 1424 1425 1426 1427 1429 1430 1432 1435 1438 1442 1444
1490 1488 1485 1483 1482 1480 1478 1476 1473 1471 1471 1469 1467 1467 1465 1458 1448 1443 1446 1445 1442 1440 1435 1430 1428 1425 1420 1418 1419 1417 1416 1416 1414 1414 1414 1414 1417 1418 1419 1419 1419 1420 1423 1430 1433 1431 1439 1437 1423 1423 1426 1427 1434 1435 1436 1446 1456 1456 1453 1460 1465 1460 1465 1475 1476 1475 1476 1476 1474 1471 1462 1446 1438 1433 1424 1424 1425 1422 1423 1424 1424 1427 1427 1429 1434 1435 1438 1439
1488 1485 1483 1482 1481 1479 1477 1475 1472 1470 1470 1469 1469 1468 1461 1454 1450 1450 1450 1449 1447 1445 1439 1431 1425 1424 1423 1420 1420 1420 1417 1416 1415 1414 1414 1416 1419 1422 1424 1424 1424 1425 1422 1423 1425 1428 1437 1432 1420 1422 1426 1424 1427 1430 1432 1441 1450 1453 1455 1458 1454 1449 1456 1469 1474 1470 1473 1481 1472 1461 1455 1443 1438 1432 1421 1422 1426 1423 1424 1423 1423 1424 1424 1427 1430 1431 1433 1434
1486 1483 1482 1481 1479 1477 1475 1473 1471 1469 1469 1469 1469 1466 1459 1455 1454 1453 1452 1451 1450 1447 1444 1438 1429 1427 1429 1427 1424 1423 1419 1417 1416 1414 1415 1419 1424 1431 1432 1429 1428 1428 1426 1424 1420 1420 1429 1430 1422 1422 1427 1424 1422 1427 1430 1431 1436 1447 1454 1448 1445 1452 1456 1463 1475 1476 1479 1483 1468 1455 1454 1450 1448 1441 1424 1421 1426 1424 1423 1422 1421 1421 1422 1424 1425 1426 1427 1428
1487 1483 1482 1481 1478 1476 1474 1471 1469 1468 1468 1468 1468 1465 1461 1458 1455 1454 1454 1452 1450 1447 1446 1444 1436 1430 1433 1433 1429 1426 1422 1419 1417 1416 1419 1422 1428 1435 1436 1433 1430 1427 1427 1427 1422 1416 1420 1427 1424 1418 1421 1422 1420 1428 1435 1432 1430 1436 1440 1437 1443 1460 1462 1462 1473 1477 1478 1480 1468 1457 1455 1447 1443 1436 1426 1425 1426 1422 1421 1420 1420 1419 1418 1419 1419 1421 1422 1424
1488 1484 1482 1481 1478 1475 1473 1470 1468 1468 1467 1468 1467 1465 1462 1460 1457 1455 1455 1453 1451 1449 1446 1444 1438 1434 1435 1434 1432 1429 1426 1425 1423 1421 1423 1428 1432 1436 1436 1435 1432 1428 1427 1425 1423 1418 1417 1425 1427 1417 1414 1420 1422 1428 1435 1435 1433 1433 1434 1435 1438 1446 1451 1455 1459 1460 1466 1473 1467 1462 1457 1442 1429 1423 1423 1424 1422 1419 1419 1418 1418 1415 1413 1413 1414 1415 1417 1420
1488 1485 1483 1481 1478 1475 1473 1471 1469 1468 1468 1469 1469 1466 1464 1463 1459 1456 1456 1454 1451 1449 1446 1443 1441 1439 1437 1435 1434 1432 1429 1429 1427 1424 1427 1432 1435 1436 1436 1437 1434 1429 1427 1423 1422 1421 1417 1423 1428 1421 1417 1422 1424 1424 1424 1427 1431 1433 1436 1438 1438 1439 1441 1447 1450 1447 1452 1463 1465 1465 1457 1435 1416 1412 1413 1414 1414 1413 1413 1413 1412 1410 1408 1409 1409 1410 1411 1413
1490 1487 1485 1481 1478 1475 1473 1472 1471 1470 1470 1470 1470 1468 1466 1464 1461 1458 1456 1454 1451 1449 1446 1443 1442 1441 1439 1437 1436 1434 1432 1430 1429 1429 1432 1435 1438 1437 1437 1437 1436 1432 1427 1424 1424 1424 1422 1423 1424 1422 1421 1422 1420 1416 1413 1415 1419 1423 1428 1430 1432 1436 1439 1450 1456 1446 1442 1449 1453 1458 1454 1430 1410 1407 1407 1407 1408 1407 1406 1407 1407 1405 1405 1406 1406 1407 1408 1409
1492 1490 1486 1482 1479 1476 1474 1473 1473 1472 1472 1472 1472 1470 1468 1466 1464 1461 1457 1454 1451 1448 1446 1444 1442 1441 1440 1438 1436 1435 1434 1433 1432 1433 1436 1438 1440 1440 1439 1438 1436 1432 1428 1427 1428 1427 1427 1426 1424 1421 1420 1418 1415 1412 1410 1411 1412 1415 1419 1420 1422 1427 1432 1444 1452 1445 1441 1444 1441 1447 1451 1429 1407 1404 1405 1404 1404 1403 1403 1404 1404 1403 1403 1403 1404 1405 1406 1408
1495 1492 1487 1484 1482 1478 1475 1475 1476 1475 1474 1474 1473 1471 1469 1468 1466 1463 1460 1457 1454 1450 1448 1445 1443 1441 1440 1439 1438 1437 1437 1438 1438 1437 1439 1441 1441 1441 1441 1439 1435 1431 1429 1430 1430 1428 1428 1429 1427 1425 1422 1416 1412 1411 1410 1411 1414 1416 1417 1415 1418 1421 1423 1428 1433 1434 1439 1443 1442 1450 1452 1429 1406 1402 1402 1401 1401 1402 1401 1402 1402 1402 1401 1401 1403 1403 1405 1407
1496 1493 1488 1485 1483 1480 1479 1481 1482 1480 1477 1476 1473 1471 1470 1469 1468 1466 1464 1461 1458 1455 1451 1447 1445 1444 1442 1440 1439 1439 1439 1440 1441 1440 1441 1442 1442 1442 1441 1439 1437 1433 1432 1433 1432 1430 1430 1430 1427 1430 1435 1432 1426 1420 1416 1413 1416 1421 1421 1419 1418 1418 1419 1422 1426 1433 1438 1435 1436 1445 1443 1423 1407 1404 1403 1403 1403 1403 1401 1401 1401 1401 1400 1401 1402 1402 1403 1405
1496 1493 1489 1487 1485 1483 1483 1486 1486 1483 1480 1478 1475 1472 1471 1470 1469 1470 1468 1464 1461 1459 1454 1451 1448 1445 1443 1442 1441 1441 1440 1439 1442 1444 1443 1443 1443 1442 1441 1440 1439 1436 1434 1435 1432 1430 1431 1432 1429 1428 1432 1435 1434 1430 1424 1421 1423 1425 1424 1425 1423 1421 1422 1422 1427 1437 1440 1432 1428 1431 1429 1418 1408 1406 1406 1405 1405 1405 1401 1400 1400 1400 1400 1400 1400 1401 1401 1402
1498 1495 1492 1488 1486 1486 1486 1487 1487 1485 1483 1481 1478 1474 1473 1472 1471 1470 1469 1466 1464 1461 1457 1454 1450 1447 1446 1444 1443 1443 1443 1441 1442 1445 1445 1446 1445 1443 1442 1441 1440 1439 1437 1435 1432 1431 1432 1433 1433 1432 1428 1430 1434 1434 1431 1431 1432 1430 1428 1427 1427 1426 1425 1422 1425 1430 1432 1432 1428 1419 1417 1417 1412 1408 1408 1406 1405 1406 1402 1399 1399 1398 1398 1399 1399 1400 1400 1401
1499 1498 1497 1494 1490 1488 1487 1487 1487 1486 1484 1483 1481 1478 1476 1474 1472 1471 1470 1468 1467 1464 1459 1456 1454 1453 1453 1451 1448 1447 1446 1444 1444 1446 1448 1448 1447 1445 1443 1442 1442 1441 1439 1436 1433 1432 1433 1434 1435 1436 1434 1434 1436 1435 1433 1434 1436 1434 1432 1430 1427 1428 1428 1427 1426 1422 1420 1428 1427 1415 1413 1418 1414 1408 1408 1406 1405 1405 1402 1399 1397 1396 1397 1398 1398 1399 1399 1400
1501 1500 1499 1499 1497 1493 1490 1489 1488 1487 1485 1483 1482 1479 1477 1476 1474 1474 1472 1470 1469 1467 1463 1460 1460 1460 1459 1458 1454 1451 1449 1448 1447 1449 1450 1449 1448 1446 1443 1442 1443 1442 1440 1438 1436 1435 1437 1437 1436 1436 1436 1435 1433 1432 1432 1434 1435 1434 1434 1431 1428 1428 1429 1429 1427 1422 1418 1422 1421 1413 1413 1416 1411 1408 1407 1404 1403 1402 1400 1398 1397 1396 1397 1396 1397 1398 1398 1398
1503 1501 1499 1499 1498 1496 1494 1492 1490 1488 1486 1483 1481 1480 1479 1477 1476 1476 1475 1472 1470 1469 1468 1466 1466 1464 1463 1461 1458 1455 1455 1453 1453 1454 1453 1452 1451 1449 1446 1444 1443 1443 1442 1441 1440 1440 1439 1438 1437 1438 1437 1434 1432 1431 1431 1434 1434 1433 1431 1429 1427 1426 1425 1425 1424 1421 1420 1420 1417 1413 1414 1412 1408 1406 1403 1400 1399 1399 1398 1397 1397 1396 1397 1397 1397 1396 1396 1396
1503 1502 1500 1499 1497 1495 1494 1492 1491 1489 1486 1483 1482 1480 1479 1478 1477 1476 1475 1473 1472 1471 1470 1470 1469 1467 1465 1463 1460 1459 1459 1459 1459 1458 1457 1456 1454 1451 1449 1448 1446 1445 1445 1444 1443 1442 1441 1439 1438 1438 1437 1435 1431 1430 1430 1432 1433 1431 1428 1424 1422 1422 1421 1421 1421 1419 1420 1421 1418 1414 1415 1412 1405 1402 1400 1398 1398 1398 1397 1397 1395 1395 1396 1396 1396 1395 1394 1394
1504 1503 1501 1500 1497 1494 1493 1491 1490 1489 1486 1483 1483 1482 1480 1479 1478 1477 1474 1472 1473 1473 1472 1471 1470 1468 1465 1463 1462 1461 1461 1461 1461 1459 1458 1458 1456 1454 1452 1451 1450 1449 1448 1448 1447 1445 1443 1442 1439 1440 1441 1436 1430 1431 1431 1428 1426 1425 1422 1418 1416 1416 1415 1414 1414 1414 1416 1418 1416 1415 1415 1410 1402 1399 1400 1398 1398 1398 1396 1394 1393 1393 1393 1394 1393 1392 1392 1392
1503 1502 1501 1500 1498 1494 1493 1491 1490 1489 1486 1484 1484 1483 1482 1480 1478 1478 1475 1471 1471 1473 1472 1471 1470 1468 1466 1464 1463 1462 1461 1460 1459 1458 1457 1457 1455 1454 1453 1451 1451 1452 1451 1450 1450 1448 1446 1445 1441 1442 1443 1437 1431 1431 1429 1427 1428 1423 1413 1410 1410 1409 1408 1407 1406 1406 1407 1409 1412 1412 1409 1402 1396 1396 1398 1397 1396 1395 1393 1391 1390 1390 1390 1391 1390 1390 1390 1390